Simultaneous Nadir Overpasses (SNOs) Predictions

Prediction of SNOs between LANDSAT-8 and NOAA-19 Satellite Orbit:

Table of predicted SNOs for the next 14.0 days since TLE Epoch: 11/21/2015
Index Date (LANDSAT-8) Time (LANDSAT-8) Lat,Lon (LANDSAT-8) SZA (LANDSAT-8 ) Date (NOAA-19) Time (NOAA-19) Lat,Lon (NOAA-19) SZA (NOAA-19 ) Distance(km) Time Diff (sec)
1 11/22/2015 01:29:50 73.82, 160.31 93.84 11/22/2015 01:29:31 73.84, 160.37 93.87 3.34 19
2 11/22/2015 02:19:19 -73.75, -32.21 86.23 11/22/2015 02:20:29 -73.78, -32.21 86.19 3.36 70
3 11/24/2015 06:14:02 74.12, 89.92 94.62 11/24/2015 06:12:51 74.21, 88.67 94.67 39.07 71
4 11/24/2015 07:03:35 -73.84,-103.07 85.67 11/24/2015 07:03:43 -73.82,-103.08 85.69 2.69 8
5 11/26/2015 11:47:52 -73.88,-174.07 85.21 11/26/2015 11:46:57 -73.87,-173.96 85.22 3.45 55
6 11/26/2015 12:37:19 73.80, -6.61 94.72 11/26/2015 12:37:57 73.79, -6.51 94.71 3.22 38
7 11/28/2015 17:21:34 73.87, -77.51 95.19 11/28/2015 17:21:10 73.87, -77.49 95.19 0.60 24
8 11/28/2015 18:11:03 -73.81, 89.98 84.87 11/28/2015 18:12:10 -73.81, 89.92 84.87 2.12 67
9 11/30/2015 22:05:42 74.36,-147.47 96.07 11/30/2015 22:04:34 74.45,-149.76 96.10 69.37 68
10 11/30/2015 22:55:19 -73.88, 19.07 84.44 11/30/2015 22:55:24 -73.87, 19.00 84.44 2.51 5
11 12/03/2015 03:39:35 -73.94, -51.86 84.04 12/03/2015 03:38:38 -73.94, -51.94 84.05 2.57 57
12 12/03/2015 04:29:02 73.85, 115.58 95.87 12/03/2015 04:29:36 73.85, 115.54 95.88 1.52 34




NCC Satellite Simultaneous Nadir Overpasses (SNOs) Prediction Service
